Flag for Finland Weather past 2 weeks in Vaasa, Finland

Now
63 °F

Passing clouds.


Feels Like: 63 °F
Forecast: 56 / 62 °F
Wind: 10 mph from West

Location: Vaasa Airport

Current Time: Aug 2, 2015 at 12:25:33 PM

Latest Report: Aug 2, 2015 at 11:50 AM


Visibility: N/A

Pressure: 29.89 "Hg

Humidity: 64%

Dew point: 50 °F

Location of VaasaLocation

Historic Weather in Vaasa — Graph

°F

Vaasa temperature yesterday

Maximum temperature yesterday: 64 °F (at 12:50 PM)
Minimum temperature yesterday: 48 °F (at 3:50 AM)
Average temperature yesterday: 58 °F

Past Weeks' High & Low Weather Summary

 TemperatureHumidityPressure
High68 °F (Jul 28, 3:20 PM)100% (Jul 20, 12:50 AM)29.86 "Hg (Jul 20, 12:50 AM)
Low46 °F (Jul 31, 3:20 AM)40% (Jul 25, 5:20 PM)29.39 "Hg (Jul 30, 9:50 AM)
Average58 °F82%29.60 "Hg
* Reported Jul 18 11:20 AM — Aug 2 11:20 AM, Vaasa, Weather by CustomWeather, © 2015

Note: Actual official high and low records may vary slightly from our data, if they occured in-between our weather recording intervals... More about our weather records

Advertising

Vaasa weather history for previous 24 hours

 ConditionsComfort  
Time TempWeatherWind HumidityBarometerVisibility
11:20 AM
Sun, Aug 2
63 °FPassing clouds.10 mph64%29.86 "HgN/A
10:50 AM63 °FPassing clouds.10 mph64%29.86 "HgN/A
10:20 AM63 °FPassing clouds.10 mph68%29.86 "HgN/A
9:50 AM61 °FPassing clouds.10 mph68%29.86 "HgN/A
9:20 AM61 °FPassing clouds.10 mph72%29.86 "HgN/A
8:50 AM61 °FPassing clouds.10 mph77%29.86 "HgN/A
8:20 AM59 °FPassing clouds.8 mph82%29.86 "HgN/A
7:50 AM59 °FPassing clouds.9 mph82%29.86 "HgN/A
7:20 AM57 °FPassing clouds.6 mph88%29.86 "HgN/A
6:50 AM55 °FPassing clouds.5 mph88%29.86 "HgN/A
6:20 AM52 °FPassing clouds.5 mph100%29.86 "HgN/A
5:50 AM50 °FClear.5 mph100%29.86 "Hg10 mi
5:20 AM50 °FClear.5 mph100%29.86 "Hg10 mi
4:50 AM52 °FPassing clouds.5 mph94%29.86 "HgN/A
4:20 AM52 °FPassing clouds.5 mph94%29.83 "HgN/A
3:50 AM54 °FPassing clouds.6 mph94%29.83 "HgN/A
3:20 AM54 °FPassing clouds.6 mph94%29.83 "HgN/A
2:20 AM55 °FPartly cloudy.5 mph88%29.83 "HgN/A
1:50 AM55 °FPartly cloudy.3 mph94%29.83 "HgN/A
12:20 AM57 °FPassing clouds.6 mph88%29.83 "HgN/A
11:50 PM
Sat, Aug 1
57 °FPassing clouds.8 mph88%29.83 "HgN/A
11:20 PM59 °FPartly sunny.9 mph88%29.80 "HgN/A
10:50 PM59 °FLight rain. Overcast.6 mph88%29.80 "HgN/A
10:20 PM59 °FLight rain. Mostly cloudy.7 mph88%29.80 "HgN/A
9:50 PM59 °FLight rain. Mostly cloudy.8 mph94%29.80 "HgN/A
9:20 PM59 °FLight rain. More clouds than sun.9 mph94%29.80 "HgN/A
8:50 PM59 °FLight rain. Partly sunny.5 mph94%29.77 "HgN/A
8:20 PM63 °FMostly cloudy.7 mph77%29.77 "HgN/A
7:50 PM63 °FBroken clouds.6 mph77%29.77 "HgN/A
7:20 PM63 °FOvercast.6 mph77%29.77 "HgN/A
6:50 PM63 °FOvercast.9 mph73%29.77 "HgN/A
6:20 PM63 °FOvercast.9 mph73%29.77 "HgN/A
5:50 PM63 °FOvercast.9 mph73%29.77 "HgN/A
5:20 PM64 °FPartly sunny.9 mph68%29.77 "HgN/A
4:50 PM64 °FBroken clouds.9 mph68%29.77 "HgN/A
4:20 PM64 °FPartly sunny.9 mph73%29.77 "HgN/A
3:50 PM64 °FPartly sunny.12 mph68%29.74 "HgN/A
3:20 PM64 °FOvercast.10 mph68%29.74 "HgN/A
2:50 PM63 °FBroken clouds.10 mph73%29.74 "HgN/A
2:20 PM64 °FScattered clouds.12 mph73%29.74 "HgN/A
1:50 PM64 °FPartly sunny.9 mph73%29.74 "HgN/A
1:20 PM64 °FPartly sunny.9 mph73%29.74 "HgN/A
12:50 PM64 °FPartly sunny.10 mph73%29.74 "HgN/A
12:20 PM63 °FPartly sunny.8 mph77%29.74 "HgN/A
Weather by CustomWeather, © 2015

See weather overviewHow to use our weather pages